{"data":{"norad_id":55982,"intl_designator":"2023-041B","name":"GLOBAL-19","alt_names":[],"object_type":"PAYLOAD","status":"ACTIVE","operator":null,"country":"US","launch_date":"2023-03-24","launch_site_code":"RLLB","launch_vehicle":null,"mission":null,"orbit_class":"UNKNOWN","rcs_meters":null,"size_class":null,"mass_kg":null,"dimensions":null,"purposes":[],"wikipedia_slug":null,"has_3d_model":false,"image_url":null,"decayed_at":null,"tle_current":{"epoch":"2026-05-24T22:05:36.327840Z","epoch_age_seconds":72094,"freshness":"FRESH","line1":"1 55982U 23041B   26144.92055935  .00013697  00000+0  35809-3 0  9997","line2":"2 55982  42.0030 337.6259 0006269 193.7104 166.3566 15.38534796178340","mean_motion":15.38534796,"eccentricity":0.0006269,"inclination_deg":42.003,"raan_deg":337.6259,"arg_perigee_deg":193.7104,"mean_anomaly_deg":166.3566,"bstar":0.00035809,"rev_number":17834,"period_min":93.59554322358,"perigee_km":446.16045084228,"apogee_km":454.72212229799,"semimajor_km":6828.5782865701,"source":"CELESTRAK","updated_at":"2026-05-25T13:37:59.250462Z"}}}